TimeCDT,TemperatureF,Dew PointF,Humidity,Sea Level PressureIn,VisibilityMPH,Wind Direction,Wind SpeedMPH,Gust SpeedMPH,PrecipitationIn,Events,Conditions,WindDirDegrees,DateUTC
12:16 AM,30.2,28.4,93,29.88,3.0,NNE,20.7,29.9,0.00,Snow,Light Snow,30,2013-03-24 05:16:00
12:53 AM,30.9,28.0,89,29.95,5.0,North,17.3,-,0.00,Snow,Light Snow,10,2013-03-24 05:53:00
1:30 AM,30.2,28.4,93,29.88,2.0,NNE,20.7,-,0.01,Snow,Light Snow,20,2013-03-24 06:30:00
1:53 AM,30.9,28.0,89,29.89,1.5,NNE,19.6,-,0.02,Snow,Light Snow,30,2013-03-24 06:53:00
2:53 AM,30.9,28.0,89,29.87,1.5,NNE,23.0,-,0.01,Snow,Light Snow,20,2013-03-24 07:53:00
3:53 AM,30.0,27.0,88,29.87,1.0,North,20.7,-,0.02,Snow,Light Snow,10,2013-03-24 08:53:00
4:07 AM,30.2,26.6,86,29.83,0.8,North,21.9,-,0.01,Snow,Light Snow,10,2013-03-24 09:07:00
4:26 AM,30.2,26.6,86,29.83,0.5,North,20.7,28.8,0.01,Fog-Snow,Snow,360,2013-03-24 09:26:00
4:53 AM,28.9,27.0,92,29.86,0.5,North,20.7,-,0.04,Fog-Snow,Snow,360,2013-03-24 09:53:00
5:31 AM,28.4,26.6,93,29.85,1.0,North,23.0,31.1,0.02,Snow,Light Snow,360,2013-03-24 10:31:00
5:53 AM,28.0,25.0,88,29.88,0.8,North,23.0,29.9,0.03,Snow,Light Snow,350,2013-03-24 10:53:00
6:32 AM,28.4,24.8,86,29.87,1.0,North,23.0,29.9,0.03,Snow,Light Snow,360,2013-03-24 11:32:00
6:53 AM,28.0,25.0,88,29.90,1.0,North,23.0,31.1,0.03,Snow,Light Snow,360,2013-03-24 11:53:00
7:33 AM,28.4,24.8,86,29.88,0.5,North,23.0,28.8,0.02,Fog-Snow,Light Snow,360,2013-03-24 12:33:00
7:53 AM,28.0,25.0,88,29.91,0.5,North,20.7,28.8,0.03,Fog-Snow,Light Snow,350,2013-03-24 12:53:00
8:10 AM,28.4,24.8,86,29.89,0.5,North,19.6,29.9,0.00,Fog-Snow,Light Snow,350,2013-03-24 13:10:00
8:23 AM,28.4,24.8,86,29.90,0.8,North,21.9,29.9,0.00,Snow,Light Snow,350,2013-03-24 13:23:00
8:53 AM,27.0,24.1,89,29.93,0.8,NNW,16.1,27.6,0.01,Snow,Light Snow,340,2013-03-24 13:53:00
9:26 AM,26.6,23.0,86,29.90,0.5,NNW,19.6,-,0.02,Fog-Snow,Light Snow,340,2013-03-24 14:26:00
9:53 AM,27.0,23.0,85,29.94,0.8,NNW,18.4,27.6,0.02,Snow,Light Snow,340,2013-03-24 14:53:00
9:58 AM,26.6,23.0,86,29.91,0.8,NNW,19.6,27.6,0.00,Snow,Light Snow,340,2013-03-24 14:58:00
10:21 AM,26.6,23.0,86,29.92,0.8,NNW,17.3,-,0.01,Snow,Light Snow,340,2013-03-24 15:21:00
10:29 AM,26.6,23.0,86,29.92,1.0,NNW,16.1,24.2,0.01,Snow,Light Snow,340,2013-03-24 15:29:00
10:37 AM,26.6,23.0,86,29.92,1.0,NNW,23.0,27.6,0.01,Snow,Light Snow,340,2013-03-24 15:37:00
10:53 AM,27.0,23.0,85,29.95,1.2,NNW,19.6,28.8,0.01,Snow,Light Snow,340,2013-03-24 15:53:00
11:30 AM,26.6,23.0,86,29.92,1.8,NNW,19.6,26.5,0.00,Snow,Light Snow,340,2013-03-24 16:30:00
11:48 AM,28.4,21.2,74,29.93,2.0,NNW,20.7,26.5,0.00,Snow,Light Snow,340,2013-03-24 16:48:00
11:53 AM,28.0,21.9,78,29.96,2.0,NNW,18.4,26.5,0.00,Snow,Light Snow,330,2013-03-24 16:53:00
12:44 PM,28.4,23.0,80,29.93,1.8,NNW,16.1,26.5,0.00,Snow,Light Snow,330,2013-03-24 17:44:00
12:53 PM,28.0,23.0,81,29.96,1.5,NNW,19.6,24.2,0.00,Snow,Light Snow,330,2013-03-24 17:53:00
1:25 PM,28.4,24.8,86,29.93,2.0,NW,20.7,25.3,0.00,Snow,Light Snow,320,2013-03-24 18:25:00
1:42 PM,30.2,23.0,75,29.93,4.0,NNW,18.4,29.9,N/A,Snow,Light Snow,330,2013-03-24 18:42:00
1:53 PM,30.0,23.0,75,29.96,5.0,NW,15.0,26.5,0.00,Snow,Light Snow,320,2013-03-24 18:53:00
2:53 PM,30.9,21.0,67,29.96,9.0,NW,21.9,31.1,0.00,Snow,Light Snow,310,2013-03-24 19:53:00
3:30 PM,30.2,21.2,69,29.94,10.0,NW,16.1,28.8,0.00,,Overcast,320,2013-03-24 20:30:00
3:53 PM,30.0,21.0,69,29.98,8.0,NW,18.4,25.3,0.00,,Overcast,310,2013-03-24 20:53:00
4:53 PM,28.9,21.0,72,30.00,7.0,NW,18.4,29.9,N/A,,Overcast,320,2013-03-24 21:53:00
5:53 PM,28.0,19.0,69,30.01,7.0,NW,15.0,27.6,N/A,,Overcast,310,2013-03-24 22:53:00
6:53 PM,28.0,18.0,66,30.04,8.0,NW,18.4,28.8,N/A,,Overcast,320,2013-03-24 23:53:00
7:53 PM,27.0,16.0,63,30.05,10.0,NW,17.3,26.5,N/A,,Overcast,320,2013-03-25 00:53:00
8:53 PM,27.0,16.0,63,30.07,10.0,NW,18.4,25.3,N/A,,Overcast,320,2013-03-25 01:53:00
9:21 PM,26.6,17.6,69,30.05,10.0,NW,15.0,-,N/A,,Overcast,320,2013-03-25 02:21:00
9:53 PM,26.1,17.1,69,30.08,10.0,NW,13.8,19.6,N/A,,Overcast,320,2013-03-25 02:53:00
10:53 PM,26.1,16.0,66,30.09,10.0,NW,15.0,-,N/A,,Overcast,320,2013-03-25 03:53:00
11:53 PM,24.1,15.1,69,30.09,10.0,WNW,12.7,-,N/A,,Overcast,300,2013-03-25 04:53:00